Regional Weather Roundup
Issued by NWS

Home | Current Version | Previous Version | Text Only | Print | Product List | Glossary Off
Versions: 1 2 3 4 5 6 7 8 9 10 11 12 13 14 15 16 17 18 19 20 21 22 23 24 25 26 27

000
ASUS45 KPSR 221910
RWRAZ

ARIZONA HOURLY REGIONAL WEATHER ROUNDUP
NATIONAL WEATHER SERVICE PHOENIX AZ
1200 PM MST SAT APR 22 2017

NOTE: FAIR INDICATES FEW OR NO CLOUDS BELOW 12,000 FEET WITH NO
SIGNIFICANT WEATHER AND/OR OBSTRUCTIONS TO VISIBILITY.

AZZ001>003-036-222000-
NORTHWEST ARIZONA

CITY           SKY/WX    TMP DP  RH WIND       PRES   REMARKS
BULLHEAD CITY  MOSUNNY   82  21  10 N25G31    29.92F
KINGMAN        SUNNY     76  24  14 N10       30.04F
$$

AZZ004>008-015-016-018-222000-
NORTH CENTRAL ARIZONA

CITY           SKY/WX    TMP DP  RH WIND       PRES   REMARKS
GRAND CANYON   SUNNY     62  23  22 NE10      30.20F
WILLIAMS       SUNNY     66  23  19 VRB7      30.17F
PRESCOTT       SUNNY     72  24  16 NE5       30.09F
FLAGSTAFF      SUNNY     60  17  18 VRB5      30.19F
PAYSON         SUNNY     75  21  13 VRB7G14   30.12S
PAGE           SUNNY     64  17  16 N10G18    30.18F
$$

AZZ009>014-017-222000-
NORTHEAST ARIZONA

CITY           SKY/WX    TMP DP  RH WIND       PRES   REMARKS
WINSLOW        SUNNY     67  15  13 E3        30.16F
SAINT JOHNS    SUNNY     71  17  12 MISG      30.13F
WINDOW ROCK    SUNNY     64  17  16 VRB3      30.18F
SHOW LOW       SUNNY     64  18  16 N8        30.18F
$$

AZZ540-542>544-546-548-222000-
GREATER PHOENIX AREA

CITY           SKY/WX    TMP DP  RH WIND       PRES   REMARKS
PHOENIX        MOSUNNY   87  22   9 CALM      29.87F
BUCKEYE        SUNNY     86  25  10 SE9       29.88F
GLENDALE       MOSUNNY   88  25  10 E3        29.90F
LUKE AFB       SUNNY     88  23   9 NE6       29.87F
DEER VALLEY    SUNNY     86  21   9 E3        29.89F
SCOTTSDALE     SUNNY     87  21   9 VRB5      29.90F
MESA-FALCON    SUNNY    N/A N/A N/A S6        29.90F
MESA-GATEWAY   SUNNY     88  23   9 VRB6      29.90F
CHANDLER       SUNNY     86  23  10 W7        29.89F
$$

AZZ539-553-222000-
SOUTHWEST MARICOPA COUNTY AND PINAL COUNTY

CITY           SKY/WX    TMP DP  RH WIND       PRES   REMARKS
CASA GRANDE    SUNNY     87  20   8 VRB5      29.90F
GILA BEND      FAIR      87  19   8 NW6       29.86F
$$

AZZ503-504-507>509-222000-
SOUTHEAST ARIZONA

CITY           SKY/WX    TMP DP  RH WIND       PRES   REMARKS
TUCSON         SUNNY     88   6   4 VRB3      29.95F
DAVIS-MONTHAN  SUNNY     87   8   5 CALM      29.94F
RYAN FIELD     SUNNY     90  12   5 CALM      29.94F
NOGALES        SUNNY     86  10   6 W7        30.00F
SIERRA VISTA   SUNNY     81  11   7 SW5       30.06F
DOUGLAS        SUNNY     82  10   6 MISG      30.02F
SAFFORD        SUNNY     83  15   8 CALM      29.96F
$$

AZZ532-222000-
SOUTHWEST ARIZONA

CITY           SKY/WX    TMP DP  RH WIND       PRES   REMARKS
YUMA           SUNNY     92  21   7 N9        29.85F
$$

CAZ041-043-047-048-061-525>527-560>570-222000-
SOUTHERN CALIFORNIA

CITY           SKY/WX    TMP DP  RH WIND       PRES   REMARKS
DOWNTOWN L.A.  SUNNY     87  40  19 CALM      29.87F
L.A. AIRPORT   MOSUNNY   76  57  51 W12       29.88F
SAN DIEGO      MOSUNNY   77  53  43 NW8       29.89F
BURBANK        SUNNY     87  31  13 SE10      29.89F
ONTARIO        MOSUNNY   88  25  10 VRB3      29.90F
RIVERSIDE      SUNNY     91  34  13 VRB3      29.89F
PALM SPRINGS   SUNNY     94  21   7 CALM      29.88F
EL CENTRO NAS  MOSUNNY   92  21   7 E10       29.87F
IMPERIAL       SUNNY     92  28  10 N5        29.85F
BLYTHE         SUNNY     90  20   7 N13       29.88F
NEEDLES        MOSUNNY   87  23   9 NE17      29.93F
$$

NVZ020-UTZ003-222000-
SOUTHERN NEVADA-UTAH

CITY           SKY/WX    TMP DP  RH WIND       PRES   REMARKS
LAS VEGAS      MOSUNNY   76  17  11 N10       30.04F
SALT LAKE CITY PTSUNNY   59  25  27 S8        30.19F
$$

NMZ009-TXZ055-222000-
NEW MEXICO-WEST TEXAS

CITY           SKY/WX    TMP DP  RH WIND       PRES   REMARKS
ALBUQUERQUE    MOSUNNY   62  27  26 NE8       30.17F
EL PASO        SUNNY     71  36  27 E12       30.11F
$$


........................KEY........................
SKY/WX - SKY CONDITION/WEATHER
TMP    - TEMPERATURE IN FAHRENHEIT
DP     - DEW POINT IN FAHRENHEIT
RH     - RELATIVE HUMIDITY IN PERCENT
WIND   - DIRECTION AND SPEED IN MILES PER HOUR (MPH)
VRB    - VARIABLE WIND DIRECTION
PRES   - MEAN SEA LEVEL PRESSURE IN INCHES OF MERCURY
         F - FALLING PRESSURE   R - RISING PRESSURE
         S - STEADY PRESSURE
VSB    - VISIBILITY IN MILES
HX     - HEAT INDEX IN FAHRENHEIT
WCI    - WIND CHILL INDEX IN FAHRENHEIT
TC     - TEMPERATURE IN CELSIUS WHICH IS ALSO KNOWN AS
         TEMPERATURE IN CENTIGRADE
AFB    - AIR FORCE BASE
         LUKE AFB IS LUKE AIR FORCE BASE
         DAVIS-MONTHAN IS DAVIS-MONTHAN AIR FORCE BASE
NAS    - NAVAL AIR STATION
         EL CENTRO NAS IS EL CENTRO NAVAL AIR STATION
N/A    - NOT AVAILABLE





USA.gov is the U.S. government's official web portal to all federal, state and local government web resources and services.